[[{"header":{"parameterUnit":"m.s-1","parameterCategory":1,"la1":30.2991,"la2":30.254,"lo1":-89.0895,"lo2":-89.0444,"dy":0.0017,"dx":0.0017,"nx":28,"ny":28,"refTime":"2025-09-11T21:00:00:Z","depth":0,"parameterNumber":2,"parameterNumberName":"U-component_of_WINDS"},"data":[0,0,0,0,0,0,0,0,0,0,0,0,0,0,0,0,0,0,0,0,0,0,0,0,0,0,0,0,0,0,0,0,0,0,0,0,0,0,0,0,0,0,0,0,0,0,0,0,0,0,0,0,0,0,0,0,0,0,0.9334,0.9333,0,0.9234,0.9233,0.9232,0.9178,0.9178,0.9178,0.9178,0.9068,0.9065,0.9062,0,0,0,0,0,0,0,0,0,0,0,0,0,0.9472,0.947,0.9335,0.9333,0.9332,0.9235,0.9233,0.9232,0.9178,0.9178,0.9178,0.9178,0.9069,0.9065,0.9062,0,0,0,0,0,0,0,0,0,0,0,0,0,0.9396,0.9469,0.9335,0.9294,0.9289,0.9235,0.9233,0.9231,0.9178,0.9178,0.9178,0.9178,0.907,0.9066,0.9061,0.9038,0,0,0.9048,0.9047,0,0,0,0,0,0,0,0,0.94,0.9391,0.9301,0.9296,0.9291,0.9219,0.9241,0.9166,0.9178,0.922,0.9178,0.9178,0.9118,0.9109,0.9091,0.9033,0.9028,0.9048,0.9045,0.9044,0.9042,0,0,0,0,0,0,0,0.9406,0.9395,0.9295,0.93,0.9294,0.9278,0.9267,0.9227,0.917,0.9216,0.9212,0.9201,0.9115,0.9095,0.9088,0.9027,0.9048,0.9044,0.9042,0.904,0.8943,0.8943,0,0,0,0,0,0,0.9419,0.94,0.9298,0.9292,0.9347,0.9276,0.9263,0.9242,0.9171,0.916,0.9202,0.9199,0.9102,0.9093,0.9084,0.9051,0.9044,0.904,0.9037,0.8943,0.8943,0.8943,0,0,0,0,0,0,0.9422,0.941,0.9302,0.9345,0.933,0.9273,0.925,0.924,0.922,0.916,0.9149,0.9192,0.9102,0.909,0.905,0.9046,0.9038,0.9034,0.8943,0.8943,0.8943,0.8986,0,0,0,0,0,0,0.9426,0.9412,0.9404,0.9345,0.9328,0.9272,0.925,0.9238,0.9214,0.921,0.9148,0.9138,0.9101,0.9057,0.9046,0.904,0.9031,0.8943,0.8943,0.8943,0.8985,0.8987,0.899,0,0,0,0,0,0.9431,0.9418,0.9404,0.9392,0.9317,0.9272,0.9262,0.9222,0.9214,0.9204,0.9166,0.914,0.9049,0.9053,0.904,0.9034,0.8943,0.8943,0.8943,0.8983,0.8987,0.899,0,0,0,0,0,0,0.9476,0.941,0.9393,0.9361,0.9323,0.9263,0.925,0.9227,0.9188,0.9186,0.9135,0.9122,0.9087,0.9056,0.9062,0.9007,0.8993,0.8991,0.9028,0.9031,0.9033,0.9041,0.9027,0,0,0,0,0,0.9482,0.9454,0.9397,0.9374,0.9356,0.9307,0.9286,0.9259,0.9216,0.9199,0.9157,0.9114,0.9076,0.9052,0.9013,0.898,0.8965,0.8969,0.8972,0.8974,0.8972,0.8951,0.8952,0.8943,0.8943,0.8943,0,0,0.9495,0.9455,0.944,0.9382,0.935,0.9319,0.9294,0.9262,0.9238,0.9193,0.9154,0.9122,0.9071,0.9034,0.9016,0.9007,0.8971,0.8974,0.8977,0.8973,0.8951,0.8952,0.8953,0.8943,0.8943,0.8943,0,0,0.9502,0.947,0.9447,0.9416,0.9367,0.9334,0.9329,0.9273,0.9251,0.9211,0.9177,0.9146,0.9082,0.9047,0.902,0.9015,0.8988,0.9003,0.9016,0.8996,0.8997,0.8997,0.8994,0.8993,0.9001,0.9002,0.9002,0,0.9522,0.9478,0.9438,0.9409,0.9384,0.9344,0.932,0.929,0.923,0.9213,0.9205,0.9123,0.9086,0.9041,0.904,0.902,0.901,0.9009,0.9001,0.9,0.9,0.8996,0.8995,0.9004,0.9003,0.9003,0.9003,0,0.9505,0.9474,0.9461,0.9408,0.9381,0.9354,0.9309,0.9286,0.9261,0.9229,0.9188,0.9142,0.9093,0.9081,0.9055,0.9031,0.9027,0.9011,0.8996,0.9004,0.8999,0.8997,0.9007,0.9006,0.9005,0.9005,0,0,0.9536,0.9462,0.9458,0.9433,0.9377,0.9351,0.9321,0.9277,0.9257,0.9218,0.919,0.9137,0.9122,0.9092,0.9062,0.9045,0.9042,0.903,0.9028,0.9033,0.9011,0.9023,0.9022,0.9025,0.9024,0.9024,0.9015,0,0.9534,0.9483,0.9447,0.9408,0.9378,0.934,0.9314,0.9276,0.9244,0.9212,0.9176,0.9139,0.9122,0.9104,0.9086,0.9046,0.9036,0.9046,0.8996,0.8995,0.901,0.902,0.9033,0.9026,0.9013,0.9012,0.9012,0,0.9525,0.9489,0.9449,0.9396,0.9381,0.9359,0.9315,0.9286,0.924,0.9219,0.9186,0.9156,0.9121,0.911,0.906,0.9068,0.9045,0.9023,0.9021,0.9014,0.9003,0.9012,0.9023,0.9022,0.9009,0.9009,0.901,0,0.9551,0.9492,0.946,0.944,0.9377,0.9363,0.9335,0.929,0.9265,0.9226,0.9209,0.9165,0.914,0.9106,0.9063,0.906,0.9017,0.9003,0.8996,0.8997,0.8987,0.8988,0.8994,0.8975,0.8975,0.8975,0.8975,0,0.9552,0.9528,0.9471,0.9451,0.9423,0.938,0.9352,0.9322,0.9282,0.9254,0.9217,0.9191,0.9137,0.9104,0.907,0.9033,0.9022,0.9002,0.8993,0.9005,0.9007,0.8988,0.8987,0.8975,0.8975,0.8975,0.8975,0,0.9575,0.9536,0.9499,0.9444,0.9429,0.941,0.9362,0.934,0.9307,0.9272,0.9261,0.9208,0.9167,0.9122,0.9064,0.9042,0.9006,0.8994,0.9022,0.9017,0.9012,0.9013,0.9005,0.9001,0.8986,0.8986,0.8986,0,0.9578,0.9559,0.9503,0.9483,0.9457,0.9425,0.94,0.9357,0.9332,0.9279,0.9263,0.922,0.9183,0.9118,0.9073,0.9028,0.9014,0.9015,0.9007,0.9019,0.9013,0.9014,0.9011,0.9017,0.9017,0.9017,0.9018,0,0.9587,0.9569,0.9536,0.9496,0.9468,0.9433,0.9397,0.9382,0.9332,0.9305,0.9264,0.9235,0.9178,0.9134,0.9085,0.9054,0.9026,0.9021,0.9016,0.9027,0.9044,0.9034,0.9027,0.9021,0.902,0.902,0.902,0.902,0.9599,0.958,0.9538,0.9502,0.9471,0.9438,0.9415,0.9381,0.9346,0.9298,0.9274,0.9233,0.9186,0.9118,0.9088,0.9053,0.9044,0.9038,0.9036,0.9035,0.9038,0.9051,0.9043,0.9043,0.9043,0.9043,0.9043,0,0.9605,0.9576,0.9544,0.9496,0.9467,0.9447,0.9406,0.9383,0.9348,0.9308,0.9273,0.9225,0.9183,0.9136,0.909,0.9071,0.9057,0.906,0.906,0.9053,0.9049,0.9057,0.9072,0.9072,0.9072,0.9072,0.9072,0.9072,0.9604,0.9572,0.9549,0.95,0.947,0.9431,0.9409,0.9378,0.9347,0.9296,0.9262,0.9232,0.9188,0.9139,0.9099,0.9086,0.907,0.9076,0.906,0.9056,0.9054,0.9051,0.9058,0.9074,0.9074,0.9067,0.9067,0.9066]},{"header":{"parameterUnit":"m.s-1","parameterCategory":1,"la1":30.2991,"la2":30.254,"lo1":-89.0895,"lo2":-89.0444,"dy":0.0017,"dx":0.0017,"nx":28,"ny":28,"refTime":"2025-09-11T21:00:00:Z","depth":0,"parameterNumber":3,"parameterNumberName":"V-component_of_WINDS"},"data":[0,0,0,0,0,0,0,0,0,0,0,0,0,0,0,0,0,0,0,0,0,0,0,0,0,0,0,0,0,0,0,0,0,0,0,0,0,0,0,0,0,0,0,0,0,0,0,0,0,0,0,0,0,0,0,0,0,0,-2.2772,-2.2774,0,-2.2948,-2.295,-2.2952,-2.2995,-2.2993,-2.2992,-2.2991,-2.3165,-2.317,-2.3176,0,0,0,0,0,0,0,0,0,0,0,0,0,-2.2466,-2.2472,-2.2772,-2.2774,-2.2777,-2.2948,-2.295,-2.2953,-2.2995,-2.2993,-2.2992,-2.2991,-2.3163,-2.3169,-2.3176,0,0,0,0,0,0,0,0,0,0,0,0,0,-2.2616,-2.2473,-2.2772,-2.2818,-2.2824,-2.2948,-2.2951,-2.2953,-2.2995,-2.2993,-2.2992,-2.299,-2.3161,-2.3169,-2.3177,-2.3265,0,0,-2.3203,-2.3207,0,0,0,0,0,0,0,0,-2.2608,-2.2627,-2.2809,-2.2815,-2.2822,-2.2948,-2.2906,-2.3058,-2.2996,-2.293,-2.2991,-2.2989,-2.3093,-2.3107,-2.3144,-2.3273,-2.328,-2.3204,-2.3209,-2.3213,-2.3215,0,0,0,0,0,0,0,-2.2597,-2.262,-2.2842,-2.2812,-2.282,-2.2828,-2.2848,-2.2935,-2.3019,-2.2936,-2.2939,-2.296,-2.3097,-2.3136,-2.3148,-2.3283,-2.3204,-2.3211,-2.3217,-2.322,-2.3492,-2.3494,0,0,0,0,0,0,-2.258,-2.2611,-2.2836,-2.2847,-2.2709,-2.2835,-2.2857,-2.2909,-2.3018,-2.3033,-2.2961,-2.2961,-2.3122,-2.3138,-2.3155,-2.3265,-2.3213,-2.3221,-2.3226,-2.349,-2.3493,-2.3495,0,0,0,0,0,0,-2.2573,-2.2599,-2.2829,-2.273,-2.276,-2.2843,-2.2901,-2.2914,-2.2953,-2.3038,-2.3052,-2.2986,-2.3121,-2.3143,-2.3238,-2.3271,-2.3225,-2.3233,-2.3488,-2.3491,-2.3494,-2.3485,0,0,0,0,0,0,-2.2564,-2.2597,-2.2632,-2.2731,-2.2765,-2.2911,-2.2903,-2.2918,-2.2968,-2.297,-2.3065,-2.3079,-2.3122,-2.3225,-2.3246,-2.3282,-2.3239,-2.3485,-2.3489,-2.3493,-2.3482,-2.3487,-2.3491,0,0,0,0,0,-2.2553,-2.2621,-2.2633,-2.266,-2.2811,-2.2912,-2.2932,-2.2982,-2.2971,-2.3006,-2.3061,-2.3076,-2.3264,-2.3234,-2.3258,-2.3297,-2.3483,-2.3488,-2.3493,-2.348,-2.3486,-2.3491,0,0,0,0,0,0,-2.2521,-2.2634,-2.265,-2.2752,-2.2823,-2.2919,-2.2966,-2.2986,-2.306,-2.3058,-2.3114,-2.3135,-2.3227,-2.3272,-2.3236,-2.3388,-2.3373,-2.3383,-2.3355,-2.3362,-2.3366,-2.3353,-2.3246,0,0,0,0,0,-2.2526,-2.2601,-2.2695,-2.2776,-2.2811,-2.2882,-2.2928,-2.2961,-2.3035,-2.3064,-2.3126,-2.3196,-2.3271,-2.3319,-2.3392,-2.3489,-2.351,-2.3528,-2.3532,-2.3536,-2.3543,-2.3598,-2.3607,-2.3511,-2.3511,-2.351,0,0,-2.2537,-2.2608,-2.2651,-2.2771,-2.283,-2.2904,-2.2907,-2.2985,-2.304,-2.3075,-2.317,-2.3217,-2.3299,-2.3395,-2.3441,-2.3435,-2.3575,-2.3542,-2.3544,-2.355,-2.3604,-2.3613,-2.3621,-2.3514,-2.3513,-2.3513,0,0,-2.2594,-2.2656,-2.2731,-2.279,-2.288,-2.2927,-2.2945,-2.304,-2.3073,-2.317,-2.3198,-2.3263,-2.3391,-2.3448,-2.3494,-2.3575,-2.3591,-2.3597,-2.362,-2.3673,-2.368,-2.3687,-2.3716,-2.3725,-2.3604,-2.3604,-2.3604,0,-2.2596,-2.2711,-2.2766,-2.2844,-2.2896,-2.2934,-2.3009,-2.3063,-2.3171,-2.3205,-2.3198,-2.3361,-2.3418,-2.3529,-2.3549,-2.3584,-2.3606,-2.3586,-2.3675,-2.3683,-2.369,-2.3718,-2.3728,-2.3605,-2.3605,-2.3605,-2.3605,0,-2.2708,-2.2788,-2.2837,-2.2944,-2.3001,-2.3077,-2.3142,-2.3193,-2.322,-2.3268,-2.3365,-2.3435,-2.3524,-2.3553,-2.358,-2.3668,-2.3662,-2.3664,-2.365,-2.3698,-2.3726,-2.3737,-2.3605,-2.3605,-2.3605,-2.3605,0,0,-2.2749,-2.2887,-2.2904,-2.2954,-2.3056,-2.3117,-2.3195,-2.3285,-2.3327,-2.34,-2.3466,-2.3574,-2.3578,-2.363,-2.3663,-2.3709,-2.3769,-2.3707,-2.3709,-2.3715,-2.387,-2.3867,-2.3878,-2.3781,-2.3783,-2.3785,-2.3863,0,-2.282,-2.2962,-2.3014,-2.313,-2.3204,-2.3242,-2.3309,-2.3378,-2.3425,-2.3493,-2.3543,-2.3619,-2.3618,-2.365,-2.3697,-2.3752,-2.38,-2.3747,-2.3841,-2.3843,-2.3819,-2.3893,-2.389,-2.396,-2.3874,-2.3876,-2.3877,0,-2.292,-2.2998,-2.3122,-2.3217,-2.325,-2.331,-2.3397,-2.3462,-2.354,-2.3571,-2.363,-2.3661,-2.3741,-2.3723,-2.3834,-2.3797,-2.3838,-2.387,-2.3874,-2.3885,-2.3863,-2.3904,-2.3984,-2.3994,-2.3894,-2.3893,-2.3892,0,-2.2938,-2.3073,-2.3166,-2.3206,-2.3319,-2.336,-2.3408,-2.3486,-2.3537,-2.3612,-2.3645,-2.3727,-2.3772,-2.3834,-2.3886,-2.3868,-2.3992,-2.3979,-2.4019,-2.4017,-2.4043,-2.404,-2.4129,-2.407,-2.407,-2.4069,-2.4069,0,-2.3011,-2.3085,-2.3175,-2.3232,-2.3316,-2.3375,-2.3456,-2.3506,-2.3575,-2.364,-2.3677,-2.3737,-2.3802,-2.387,-2.3911,-2.3997,-2.4016,-2.4042,-2.4052,-2.4039,-2.4036,-2.4066,-2.4063,-2.4072,-2.4072,-2.4071,-2.4071,0,-2.3044,-2.3108,-2.3211,-2.331,-2.3336,-2.3394,-2.3478,-2.3533,-2.3582,-2.3665,-2.3687,-2.3763,-2.3845,-2.3904,-2.4008,-2.4036,-2.4128,-2.4138,-2.4102,-2.4107,-2.4144,-2.414,-2.4256,-2.4274,-2.4202,-2.4203,-2.4203,0,-2.3086,-2.3145,-2.3251,-2.3299,-2.3348,-2.3425,-2.3478,-2.3537,-2.3591,-2.3686,-2.3729,-2.3815,-2.3887,-2.4016,-2.4079,-2.4159,-2.4171,-2.4206,-2.4183,-2.4168,-2.4171,-2.4167,-2.4173,-2.4209,-2.4209,-2.421,-2.421,0,-2.3154,-2.3183,-2.3259,-2.3347,-2.341,-2.3481,-2.3553,-2.3589,-2.3661,-2.3719,-2.3805,-2.3861,-2.397,-2.4054,-2.4141,-2.4188,-2.4211,-2.4217,-2.4231,-2.4218,-2.4195,-2.4208,-2.4111,-2.4214,-2.4214,-2.4213,-2.4213,-2.4213,-2.3193,-2.3247,-2.3331,-2.3415,-2.3476,-2.3542,-2.36,-2.3657,-2.3731,-2.3826,-2.3856,-2.3945,-2.4023,-2.4142,-2.4191,-2.426,-2.4258,-2.4278,-2.4283,-2.4286,-2.4286,-2.4185,-2.4276,-2.4276,-2.4276,-2.4276,-2.4276,0,-2.3262,-2.3319,-2.3396,-2.3496,-2.3562,-2.3581,-2.3661,-2.3714,-2.3793,-2.3865,-2.3936,-2.4035,-2.4117,-2.4187,-2.4271,-2.4313,-2.4326,-2.4333,-2.433,-2.4341,-2.4283,-2.4263,-2.4322,-2.4322,-2.4322,-2.4322,-2.4322,-2.4322,-2.3306,-2.3399,-2.3439,-2.3562,-2.3617,-2.3707,-2.3752,-2.3812,-2.387,-2.398,-2.405,-2.4096,-2.4167,-2.4257,-2.4333,-2.4351,-2.438,-2.4385,-2.4406,-2.435,-2.4345,-2.434,-2.4321,-2.4391,-2.4391,-2.4458,-2.4458,-2.4459]}]]